Weather History for KELZ - March, 2014

Change the Weather History Date:

Wednesday, March 5, 2014

  Actual Average (KBFD) Record (KBFD)
Temperature  
Mean Temperature 12 °F 28 °F  
Max Temperature 19 °F 37 °F 70 °F (1992)
Min Temperature 5 °F 18 °F -2 °F (2005)
Degree Days  
Heating Degree Days 52 32  
Month to date heating degree days 162  
Since 1 July heating degree days 5732  
Cooling Degree Days 0 0  
Month to date cooling degree days 0  
Year to date cooling degree days 0  
Moisture  
Dew Point 5 °F    
Average Humidity 68    
Maximum Humidity 80    
Minimum Humidity 54    
Precipitation  
Precipitation 0.00 in 0.09 in 1.19 in (1965)
Month to date precipitation 0.48  
Year to date precipitation 6.12  
Sea Level Pressure  
Sea Level Pressure 30.33 in    
Wind  
Wind Speed 7 mph (North)    
Max Wind Speed 13 mph    
Max Gust Speed 18 mph    
Visibility 9 miles    
Events Snow    
T = Trace of Precipitation, MM = Missing Value Source: NWS Daily Summary

Daily Weather History Graph

Daily Weather History Graph

Search for Another Location

Airport or City:

Trip Planner

Search our weather history database for the weather conditions in past years. The results will help you decide how hot, cold, wet, or windy it might be!

Date:

Astronomy

Mar. 05, 2014 Rise Set
Actual Time 6:40 AM EST 6:06 PM EST
Civil Twilight 6:12 AM EST 6:34 PM EST
Nautical Twilight 5:40 AM EST 7:07 PM EST
Astronomical Twilight 5:07 AM EST 7:39 PM EST
Moon 8:59 AM EST (3/5) 11:19 PM EST (3/5)
Length of Visible Light 12h 22m
Length of Day
11h 26m
Waxing Crescent, 23% of the Moon is Illuminated
Mar 5
Waxing Crescent
Mar 8
First Quarter
Mar 16
Full
Mar 23
Last Quarter
Mar 30
New

Hourly Weather History & Observations

Time (EST) Temp. Windchill Dew Point Humidity Pressure Visibility Wind Dir Wind Speed Gust Speed Precip Events Conditions
12:56 AM 16.0 °F 4.4 °F 9.0 °F 74% 30.22 in 10.0 mi NNW 9.2 mph - N/A   Overcast
1:56 AM 16.0 °F 8.8 °F 5.0 °F 62% 30.20 in 10.0 mi NNW 4.6 mph - N/A   Overcast
2:56 AM 16.0 °F 7.4 °F 1.9 °F 54% 30.20 in 10.0 mi NNW 5.8 mph - N/A   Overcast
3:56 AM 16.0 °F 10.4 °F 3.0 °F 57% 30.20 in 10.0 mi NNW 3.5 mph - N/A   Overcast
4:56 AM 15.1 °F 7.7 °F 5.0 °F 64% 30.21 in 10.0 mi NNW 4.6 mph - N/A   Overcast
5:56 AM 14.0 °F 8.2 °F 6.1 °F 71% 30.23 in 10.0 mi North 3.5 mph - N/A   Overcast
6:56 AM 14.0 °F 6.5 °F 3.0 °F 62% 30.24 in 10.0 mi NNW 4.6 mph - N/A   Overcast
7:56 AM 14.0 °F 3.9 °F 1.0 °F 56% 30.27 in 10.0 mi North 6.9 mph - N/A   Overcast
8:56 AM 14.0 °F 5.1 °F 7.0 °F 74% 30.30 in 10.0 mi NNW 5.8 mph - N/A   Overcast
9:41 AM 15.1 °F 5.2 °F 8.1 °F 74% 30.19 in 7.0 mi North 6.9 mph - 0.00 in Snow Light Snow
9:56 AM 15.1 °F 5.2 °F 7.0 °F 70% 30.31 in 9.0 mi North 6.9 mph - 0.00 in   Overcast
10:09 AM 16.0 °F 6.3 °F 7.0 °F 68% 30.20 in 10.0 mi North 6.9 mph - N/A   Overcast
10:17 AM 16.0 °F 3.6 °F 7.0 °F 68% 30.20 in 10.0 mi NNW 10.4 mph - N/A   Overcast
10:56 AM 17.1 °F 7.6 °F 7.0 °F 65% 30.32 in 9.0 mi NNW 6.9 mph - 0.00 in Snow Light Snow
11:56 AM 18.0 °F 6.9 °F 7.0 °F 62% 30.33 in 10.0 mi North 9.2 mph - 0.00 in   Overcast
12:56 PM 18.0 °F 6.1 °F 6.1 °F 60% 30.33 in 10.0 mi North 10.4 mph - N/A   Overcast
1:51 PM 17.6 °F 6.4 °F 6.8 °F 63% 30.24 in 9.0 mi North 9.2 mph - 0.00 in   Overcast
1:56 PM 18.0 °F 6.1 °F 7.0 °F 62% 30.35 in 9.0 mi NNE 10.4 mph - 0.00 in   Overcast
2:56 PM 19.0 °F 8.2 °F 9.0 °F 65% 30.37 in 9.0 mi NNE 9.2 mph - 0.00 in Snow Light Snow
3:12 PM 18.0 °F 7.7 °F 9.0 °F 68% 30.26 in 9.0 mi NNE 8.1 mph - 0.00 in Snow Light Snow
3:51 PM 17.6 °F 8.2 °F 12.2 °F 79% 30.27 in 2.0 mi North 6.9 mph - 0.00 in Snow Light Snow
3:56 PM 18.0 °F 8.7 °F 10.9 °F 74% 30.39 in 1.8 mi NNE 6.9 mph - 0.00 in Snow Light Snow
4:03 PM 18.0 °F 8.7 °F 10.9 °F 74% 30.27 in 3.0 mi NNE 6.9 mph - 0.00 in Snow Light Snow
4:56 PM 16.0 °F 3.6 °F 5.0 °F 62% 30.41 in 10.0 mi North 10.4 mph - 0.00 in   Mostly Cloudy
5:14 PM 16.0 °F 6.3 °F 3.9 °F 59% 30.30 in 10.0 mi North 6.9 mph - N/A   Overcast
5:27 PM 16.0 °F 2.3 °F 3.9 °F 59% 30.30 in 10.0 mi NNE 12.7 mph 18.4 mph N/A   Overcast
5:38 PM 15.1 °F 4.2 °F 5.0 °F 64% 30.31 in 10.0 mi NNE 8.1 mph - N/A   Overcast
5:56 PM 14.0 °F 2.9 °F 3.9 °F 64% 30.45 in 10.0 mi North 8.1 mph - N/A   Mostly Cloudy
6:56 PM 10.9 °F -1.8 °F 3.9 °F 73% 30.49 in 10.0 mi NNE 9.2 mph - N/A   Mostly Cloudy
7:17 PM 10.9 °F -1.8 °F 3.9 °F 73% 30.36 in 10.0 mi NNE 9.2 mph - N/A   Partly Cloudy
7:51 PM 10.4 °F -1.5 °F 3.2 °F 73% 30.36 in 10.0 mi NNE 8.1 mph - N/A   Partly Cloudy
7:56 PM 10.0 °F -2.9 °F 3.0 °F 73% 30.50 in 10.0 mi NNE 9.2 mph - N/A   Partly Cloudy
8:56 PM 8.1 °F -2.0 °F 1.9 °F 76% 30.53 in 10.0 mi ENE 5.8 mph - N/A   Clear
9:56 PM 7.0 °F -4.5 °F 1.0 °F 77% 30.55 in 10.0 mi ENE 6.9 mph - N/A   Clear
10:56 PM 6.1 °F -4.3 °F 1.0 °F 80% 30.55 in 10.0 mi NE 5.8 mph - N/A   Clear
11:56 PM 5.0 °F -6.9 °F -0.9 °F 76% 30.54 in 10.0 mi East 6.9 mph - N/A   Clear